| time (UTC) | temp C | wind direction | speed KPH | gust KPH | rain 1hr cm | rain 24hr cm | rain mn cm | humidity % | barometer mb |
| 20260902213020 | 38 | 244 | 4.8 | 8.0 | 0.00 | 0.00 | 0.00 | 38 | 1012.7 |
| 20260902212516 | 38 | 194 | 6.4 | 12.9 | 0.00 | 0.00 | 0.00 | 39 | 1012.7 |
| 20260902212012 | 37 | 241 | 8.0 | 11.3 | 0.00 | 0.00 | 0.00 | 40 | 1012.7 |
| 20260902211508 | 38 | 210 | 3.2 | 3.2 | 0.00 | 0.00 | 0.00 | 39 | 1012.7 |
| 20260902211002 | 39 | 214 | 4.8 | 12.9 | 0.00 | 0.00 | 0.00 | 38 | 1012.7 |
| 20260902210456 | 39 | 226 | 4.8 | 4.8 | 0.00 | 0.00 | 0.00 | 37 | 1012.7 |
| 20260902205955 | 40 | 40 | 4.8 | 4.8 | 0.00 | 0.00 | 0.00 | 36 | 1012.7 |
| 20260902205450 | 40 | 206 | 0.0 | 1.6 | 0.00 | 0.00 | 0.00 | 34 | 1012.7 |
| 20260902204946 | 39 | 255 | 1.6 | 1.6 | 0.00 | 0.00 | 0.00 | 36 | 1012.7 |
| 20260902204445 | 38 | 248 | 0.0 | 1.6 | 0.00 | 0.00 | 0.00 | 37 | 1013.1 |
| 20260902203941 | 38 | 316 | 1.6 | 1.6 | 0.00 | 0.00 | 0.00 | 37 | 1013.5 |
| 20260902203436 | 39 | 222 | 3.2 | 3.2 | 0.00 | 0.00 | 0.00 | 36 | 1013.1 |
| 20260902202935 | 40 | 248 | 6.4 | 11.3 | 0.00 | 0.00 | 0.00 | 36 | 1013.5 |
| 20260902202431 | 39 | 222 | 1.6 | 1.6 | 0.00 | 0.00 | 0.00 | 37 | 1013.5 |
| 20260902201927 | 40 | 245 | 1.6 | 3.2 | 0.00 | 0.00 | 0.00 | 36 | 1013.5 |
| 20260902201422 | 38 | 293 | 1.6 | 1.6 | 0.00 | 0.00 | 0.00 | 38 | 1013.5 |
| 20260902200917 | 38 | 222 | 1.6 | 3.2 | 0.00 | 0.00 | 0.00 | 38 | 1013.5 |
| 20260902200412 | 39 | 215 | 0.0 | 1.6 | 0.00 | 0.00 | 0.00 | 37 | 1013.8 |
| 20260902195907 | 39 | 265 | 0.0 | 0.0 | 0.00 | 0.00 | 0.00 | 37 | 1013.8 |
| 20260902195402 | 38 | 214 | 4.8 | 8.0 | 0.00 | 0.00 | 0.00 | 37 | 1013.8 |
| 20260902194856 | 40 | 307 | 0.0 | 0.0 | 0.00 | 0.00 | 0.00 | 37 | 1014.1 |
| 20260902194357 | 40 | 283 | 1.6 | 3.2 | 0.00 | 0.00 | 0.00 | 37 | 1014.1 |
| 20260902193851 | 40 | 300 | 1.6 | 3.2 | 0.00 | 0.00 | 0.00 | 36 | 1014.1 |
| 20260902193348 | 39 | 259 | 0.0 | 0.0 | 0.00 | 0.00 | 0.00 | 36 | 1014.1 |
| 20260902192846 | 37 | 248 | 3.2 | 3.2 | 0.00 | 0.00 | 0.00 | 39 | 1014.5 |
| 20260902192345 | 37 | 167 | 4.8 | 4.8 | 0.00 | 0.00 | 0.00 | 39 | 1014.1 |
| 20260902191839 | 38 | 191 | 4.8 | 4.8 | 0.00 | 0.00 | 0.00 | 38 | 1014.5 |
| 20260902191335 | 39 | 192 | 6.4 | 11.3 | 0.00 | 0.00 | 0.00 | 37 | 1014.5 |
| 20260902190830 | 38 | 256 | 1.6 | 1.6 | 0.00 | 0.00 | 0.00 | 38 | 1014.5 |
| 20260902190329 | 40 | 175 | 3.2 | 4.8 | 0.00 | 0.00 | 0.00 | 37 | 1014.8 |
| 20260902185826 | 38 | 297 | 1.6 | 1.6 | 0.00 | 0.00 | 0.00 | 38 | 1014.8 |
| 20260902185321 | 40 | 238 | 6.4 | 8.0 | 0.00 | 0.00 | 0.00 | 36 | 1014.8 |
| 20260902184816 | 39 | 238 | 3.2 | 3.2 | 0.00 | 0.00 | 0.00 | 37 | 1014.8 |
| 20260902184312 | 38 | 78 | 4.8 | 9.7 | 0.00 | 0.00 | 0.00 | 39 | 1014.8 |
| 20260902183807 | 38 | 186 | 6.4 | 9.7 | 0.00 | 0.00 | 0.00 | 39 | 1015.2 |
| 20260902183303 | 38 | 193 | 1.6 | 1.6 | 0.00 | 0.00 | 0.00 | 39 | 1015.2 |
| 20260902182759 | 38 | 284 | 1.6 | 3.2 | 0.00 | 0.00 | 0.00 | 39 | 1015.5 |
| 20260902182255 | 37 | 177 | 4.8 | 4.8 | 0.00 | 0.00 | 0.00 | 40 | 1015.5 |
| 20260902181751 | 38 | 226 | 1.6 | 3.2 | 0.00 | 0.00 | 0.00 | 39 | 1015.5 |
| 20260902181246 | 37 | 198 | 3.2 | 3.2 | 0.00 | 0.00 | 0.00 | 40 | 1015.5 |
| 20260902180740 | 38 | 301 | 4.8 | 4.8 | 0.00 | 0.00 | 0.00 | 40 | 1015.5 |
| 20260902180236 | 37 | 224 | 1.6 | 3.2 | 0.00 | 0.00 | 0.00 | 40 | 1016.2 |
| 20260902175731 | 37 | 209 | 9.7 | 11.3 | 0.00 | 0.00 | 0.00 | 40 | 1015.8 |
| 20260902175227 | 37 | 187 | 4.8 | 4.8 | 0.00 | 0.00 | 0.00 | 41 | 1016.2 |
| 20260902174723 | 37 | 192 | 4.8 | 8.0 | 0.00 | 0.00 | 0.00 | 42 | 1016.2 |
| 20260902174218 | 37 | 221 | 4.8 | 8.0 | 0.00 | 0.00 | 0.00 | 42 | 1016.2 |
| 20260902173714 | 37 | 214 | 6.4 | 8.0 | 0.00 | 0.00 | 0.00 | 42 | 1016.2 |
| 20260902173208 | 36 | 195 | 1.6 | 3.2 | 0.00 | 0.00 | 0.00 | 44 | 1016.5 |
| 20260902172703 | 37 | 183 | 8.0 | 9.7 | 0.00 | 0.00 | 0.00 | 43 | 1016.5 |
| 20260902172202 | 36 | 160 | 1.6 | 3.2 | 0.00 | 0.00 | 0.00 | 44 | 1016.5 |
| 20260902171657 | 36 | 272 | 3.2 | 4.8 | 0.00 | 0.00 | 0.00 | 44 | 1016.5 |
| 20260902171153 | 37 | 261 | 1.6 | 1.6 | 0.00 | 0.00 | 0.00 | 43 | 1016.9 |
| 20260902170649 | 37 | 299 | 1.6 | 1.6 | 0.00 | 0.00 | 0.00 | 44 | 1016.9 |
| 20260902170144 | 36 | 181 | 1.6 | 1.6 | 0.00 | 0.00 | 0.00 | 45 | 1017.2 |
| 20260902165638 | 36 | 261 | 1.6 | 3.2 | 0.00 | 0.00 | 0.00 | 45 | 1016.9 |
| 20260902165133 | 36 | 275 | 1.6 | 1.6 | 0.00 | 0.00 | 0.00 | 46 | 1016.9 |
| 20260902164628 | 35 | 256 | 0.0 | 1.6 | 0.00 | 0.00 | 0.00 | 48 | 1017.2 |
| 20260902164127 | 35 | 161 | 6.4 | 9.7 | 0.00 | 0.00 | 0.00 | 48 | 1017.2 |
| 20260902163622 | 35 | 212 | 3.2 | 4.8 | 0.00 | 0.00 | 0.00 | 49 | 1017.2 |
| 20260902163121 | 35 | 204 | 3.2 | 4.8 | 0.00 | 0.00 | 0.00 | 50 | 1017.2 |
| 20260902162620 | 35 | 222 | 4.8 | 4.8 | 0.00 | 0.00 | 0.00 | 50 | 1017.2 |
| 20260902162115 | 34 | 260 | 1.6 | 3.2 | 0.00 | 0.00 | 0.00 | 51 | 1017.2 |
| 20260902161610 | 34 | 190 | 4.8 | 8.0 | 0.00 | 0.00 | 0.00 | 51 | 1017.2 |
| 20260902161106 | 34 | 188 | 4.8 | 8.0 | 0.00 | 0.00 | 0.00 | 51 | 1017.2 |
| 20260902160602 | 35 | 148 | 1.6 | 3.2 | 0.00 | 0.00 | 0.00 | 50 | 1017.2 |
| 20260902160057 | 34 | 262 | 1.6 | 3.2 | 0.00 | 0.00 | 0.00 | 50 | 1016.9 |
| 20260902155549 | 33 | 206 | 4.8 | 4.8 | 0.00 | 0.00 | 0.00 | 53 | 1017.2 |
| 20260902155048 | 33 | 176 | 4.8 | 8.0 | 0.00 | 0.00 | 0.00 | 53 | 1017.2 |
| 20260902154544 | 33 | 139 | 4.8 | 4.8 | 0.00 | 0.00 | 0.00 | 54 | 1017.2 |
| 20260902154039 | 33 | 197 | 9.7 | 11.3 | 0.00 | 0.00 | 0.00 | 52 | 1017.2 |
| 20260902153537 | 33 | 260 | 1.6 | 1.6 | 0.00 | 0.00 | 0.00 | 53 | 1017.2 |
| 20260902153033 | 33 | 190 | 4.8 | 4.8 | 0.00 | 0.00 | 0.00 | 54 | 1017.2 |
| 20260902152529 | 33 | 132 | 3.2 | 3.2 | 0.00 | 0.00 | 0.00 | 56 | 1017.2 |
| 20260902152025 | 32 | 255 | 1.6 | 1.6 | 0.00 | 0.00 | 0.00 | 57 | 1017.2 |
| 20260902151520 | 32 | 269 | 0.0 | 1.6 | 0.00 | 0.00 | 0.00 | 57 | 1017.2 |
| 20260902151019 | 32 | 274 | 3.2 | 4.8 | 0.00 | 0.00 | 0.00 | 58 | 1017.2 |
| 20260902150515 | 31 | 317 | 3.2 | 4.8 | 0.00 | 0.00 | 0.00 | 60 | 1017.2 |
| 20260902150010 | 32 | 258 | 3.2 | 3.2 | 0.00 | 0.00 | 0.00 | 59 | 1017.2 |
| 20260902145505 | 31 | 289 | 0.0 | 1.6 | 0.00 | 0.00 | 0.00 | 61 | 1017.2 |
| 20260902144959 | 31 | 246 | 3.2 | 3.2 | 0.00 | 0.00 | 0.00 | 63 | 1017.2 |
| 20260902144456 | 30 | 196 | 1.6 | 3.2 | 0.00 | 0.00 | 0.00 | 66 | 1017.2 |
| 20260902143950 | 30 | 201 | 9.7 | 12.9 | 0.00 | 0.00 | 0.00 | 65 | 1017.2 |
| 20260902143445 | 30 | 222 | 4.8 | 4.8 | 0.00 | 0.00 | 0.00 | 65 | 1017.5 |
| 20260902142940 | 30 | 202 | 4.8 | 8.0 | 0.00 | 0.00 | 0.00 | 66 | 1017.2 |
| 20260902142436 | 30 | 234 | 4.8 | 8.0 | 0.00 | 0.00 | 0.00 | 66 | 1017.2 |
| 20260902141932 | 31 | 287 | 3.2 | 3.2 | 0.00 | 0.00 | 0.00 | 65 | 1017.5 |
| 20260902141427 | 30 | 242 | 6.4 | 9.7 | 0.00 | 0.00 | 0.00 | 67 | 1017.2 |
| 20260902140926 | 30 | 193 | 6.4 | 11.3 | 0.00 | 0.00 | 0.00 | 67 | 1017.5 |
| 20260902140422 | 30 | 256 | 0.0 | 0.0 | 0.00 | 0.00 | 0.00 | 68 | 1017.2 |
| 20260902135921 | 30 | 237 | 3.2 | 4.8 | 0.00 | 0.00 | 0.00 | 69 | 1017.2 |
| 20260902135418 | 29 | 242 | 0.0 | 1.6 | 0.00 | 0.00 | 0.00 | 69 | 1017.2 |
| 20260902134916 | 28 | 254 | 1.6 | 1.6 | 0.00 | 0.00 | 0.00 | 70 | 1017.2 |
| 20260902134412 | 28 | 262 | 0.0 | 0.0 | 0.00 | 0.00 | 0.00 | 72 | 1017.2 |
| 20260902133913 | 28 | 265 | 1.6 | 1.6 | 0.00 | 0.00 | 0.00 | 72 | 1017.2 |
| 20260902133407 | 27 | 206 | 3.2 | 3.2 | 0.00 | 0.00 | 0.00 | 73 | 1017.5 |
| 20260902132902 | 27 | 250 | 3.2 | 3.2 | 0.00 | 0.00 | 0.00 | 75 | 1017.2 |
| 20260902132357 | 27 | 223 | 1.6 | 1.6 | 0.00 | 0.00 | 0.00 | 76 | 1017.2 |
| 20260902131852 | 27 | 217 | 3.2 | 4.8 | 0.00 | 0.00 | 0.00 | 76 | 1017.2 |
| 20260902131349 | 26 | 232 | 1.6 | 1.6 | 0.00 | 0.00 | 0.00 | 78 | 1017.2 |
| 20260902130848 | 26 | 227 | 3.2 | 3.2 | 0.00 | 0.00 | 0.00 | 79 | 1017.2 |
| 20260902130344 | 26 | 236 | 0.0 | 0.0 | 0.00 | 0.00 | 0.00 | 81 | 1016.9 |
| 20260902125839 | 26 | 264 | 0.0 | 1.6 | 0.00 | 0.00 | 0.00 | 81 | 1016.9 |
| 20260902125335 | 25 | 200 | 3.2 | 4.8 | 0.00 | 0.00 | 0.00 | 82 | 1016.9 |
| 20260902124831 | 25 | 250 | 1.6 | 1.6 | 0.00 | 0.00 | 0.00 | 82 | 1016.9 |
| 20260902124326 | 25 | 204 | 0.0 | 0.0 | 0.00 | 0.00 | 0.00 | 83 | 1016.9 |
| 20260902123821 | 25 | 206 | 1.6 | 3.2 | 0.00 | 0.00 | 0.00 | 84 | 1016.9 |
| 20260902123318 | 25 | 248 | 0.0 | 0.0 | 0.00 | 0.00 | 0.00 | 85 | 1016.9 |
| 20260902122816 | 25 | 242 | 0.0 | 0.0 | 0.00 | 0.00 | 0.00 | 85 | 1016.5 |
| 20260902122313 | 25 | 241 | 0.0 | 0.0 | 0.00 | 0.00 | 0.00 | 85 | 1016.9 |
| 20260902121812 | 25 | 242 | 0.0 | 0.0 | 0.00 | 0.00 | 0.00 | 85 | 1016.5 |
| 20260902121307 | 25 | 229 | 0.0 | 0.0 | 0.00 | 0.00 | 0.00 | 85 | 1016.5 |
| 20260902120803 | 25 | 213 | 1.6 | 1.6 | 0.00 | 0.00 | 0.00 | 84 | 1016.5 |
| 20260902120259 | 25 | 235 | 0.0 | 0.0 | 0.00 | 0.00 | 0.00 | 83 | 1016.5 |
| 20260902115754 | 25 | 247 | 0.0 | 0.0 | 0.00 | 0.00 | 0.00 | 83 | 1016.5 |
| 20260902115250 | 25 | 246 | 0.0 | 0.0 | 0.00 | 0.00 | 0.00 | 84 | 1016.5 |
| 20260902114746 | 25 | 246 | 0.0 | 0.0 | 0.00 | 0.00 | 0.00 | 85 | 1016.2 |
| 20260902114242 | 25 | 247 | 0.0 | 1.6 | 0.00 | 0.00 | 0.00 | 85 | 1016.2 |
| 20260902113742 | 25 | 270 | 0.0 | 0.0 | 0.00 | 0.00 | 0.00 | 84 | 1016.2 |
| 20260902113237 | 25 | 246 | 0.0 | 0.0 | 0.00 | 0.00 | 0.00 | 84 | 1016.2 |
| 20260902112736 | 25 | 240 | 0.0 | 0.0 | 0.00 | 0.00 | 0.00 | 84 | 1016.2 |
| 20260902112234 | 25 | 246 | 0.0 | 1.6 | 0.00 | 0.00 | 0.00 | 83 | 1016.2 |
| 20260902111729 | 25 | 218 | 1.6 | 1.6 | 0.00 | 0.00 | 0.00 | 82 | 1016.2 |
| 20260902111225 | 25 | 249 | 0.0 | 0.0 | 0.00 | 0.00 | 0.00 | 82 | 1016.2 |
| 20260902110720 | 25 | 245 | 0.0 | 0.0 | 0.00 | 0.00 | 0.00 | 82 | 1016.2 |
| 20260902110216 | 25 | 200 | 1.6 | 1.6 | 0.00 | 0.00 | 0.00 | 82 | 1016.2 |
| 20260902105715 | 25 | 242 | 0.0 | 0.0 | 0.00 | 0.00 | 0.00 | 81 | 1015.8 |
| 20260902105211 | 25 | 207 | 3.2 | 3.2 | 0.00 | 0.00 | 0.00 | 81 | 1016.2 |
| 20260902104706 | 25 | 237 | 1.6 | 1.6 | 0.00 | 0.00 | 0.00 | 81 | 1016.2 |
| 20260902104203 | 26 | 217 | 0.0 | 1.6 | 0.00 | 0.00 | 0.00 | 81 | 1016.2 |
| 20260902103701 | 25 | 216 | 3.2 | 3.2 | 0.00 | 0.00 | 0.00 | 81 | 1016.2 |
| 20260902103156 | 25 | 246 | 0.0 | 0.0 | 0.00 | 0.00 | 0.00 | 82 | 1016.2 |
| 20260902102652 | 25 | 224 | 0.0 | 0.0 | 0.00 | 0.00 | 0.00 | 82 | 1016.2 |
| 20260902102150 | 25 | 226 | 0.0 | 1.6 | 0.00 | 0.00 | 0.00 | 82 | 1016.2 |
| 20260902101645 | 25 | 248 | 0.0 | 0.0 | 0.00 | 0.00 | 0.00 | 82 | 1016.2 |
| 20260902101144 | 26 | 249 | 0.0 | 0.0 | 0.00 | 0.00 | 0.00 | 81 | 1016.2 |
| 20260902100639 | 26 | 247 | 0.0 | 0.0 | 0.00 | 0.00 | 0.00 | 81 | 1016.2 |
| 20260902100134 | 26 | 243 | 0.0 | 0.0 | 0.00 | 0.00 | 0.00 | 81 | 1016.2 |
| 20260902095633 | 26 | 192 | 3.2 | 3.2 | 0.00 | 0.00 | 0.00 | 81 | 1016.2 |
| 20260902095132 | 26 | 237 | 0.0 | 1.6 | 0.00 | 0.00 | 0.00 | 81 | 1016.2 |
| 20260902094628 | 26 | 209 | 0.0 | 0.0 | 0.00 | 0.00 | 0.00 | 81 | 1016.2 |
| 20260902094124 | 26 | 247 | 0.0 | 0.0 | 0.00 | 0.00 | 0.00 | 80 | 1016.2 |
| 20260902093624 | 26 | 225 | 0.0 | 0.0 | 0.00 | 0.00 | 0.00 | 80 | 1016.2 |
| 20260902093119 | 26 | 223 | 3.2 | 3.2 | 0.00 | 0.00 | 0.00 | 79 | 1016.2 |
| 20260902092618 | 26 | 248 | 0.0 | 0.0 | 0.00 | 0.00 | 0.00 | 79 | 1016.2 |
| 20260902092114 | 26 | 222 | 1.6 | 1.6 | 0.00 | 0.00 | 0.00 | 79 | 1016.2 |
| 20260902091609 | 26 | 250 | 0.0 | 0.0 | 0.00 | 0.00 | 0.00 | 79 | 1016.2 |
| 20260902091105 | 26 | 242 | 0.0 | 0.0 | 0.00 | 0.00 | 0.00 | 79 | 1016.2 |
| 20260902090601 | 26 | 249 | 0.0 | 0.0 | 0.00 | 0.00 | 0.00 | 79 | 1016.2 |
| 20260902090059 | 26 | 248 | 0.0 | 0.0 | 0.00 | 0.00 | 0.00 | 79 | 1016.2 |
| 20260902085554 | 26 | 237 | 1.6 | 1.6 | 0.00 | 0.00 | 0.00 | 79 | 1016.2 |
| 20260902085049 | 26 | 229 | 1.6 | 1.6 | 0.00 | 0.00 | 0.00 | 80 | 1016.2 |
| 20260902084545 | 26 | 251 | 1.6 | 1.6 | 0.00 | 0.00 | 0.00 | 81 | 1016.5 |
| 20260902084040 | 26 | 245 | 0.0 | 0.0 | 0.00 | 0.00 | 0.00 | 80 | 1016.2 |
| 20260902083530 | 26 | 224 | 0.0 | 0.0 | 0.00 | 0.00 | 0.00 | 80 | 1016.5 |
| 20260902083024 | 26 | 225 | 0.0 | 0.0 | 0.00 | 0.00 | 0.00 | 79 | 1016.2 |
| 20260902082520 | 26 | 242 | 0.0 | 0.0 | 0.00 | 0.00 | 0.00 | 79 | 1016.2 |
| 20260902082017 | 26 | 231 | 0.0 | 0.0 | 0.00 | 0.00 | 0.00 | 79 | 1016.5 |
| 20260902081513 | 26 | 237 | 0.0 | 1.6 | 0.00 | 0.00 | 0.00 | 79 | 1016.5 |
| 20260902081013 | 26 | 236 | 0.0 | 0.0 | 0.00 | 0.00 | 0.00 | 79 | 1016.5 |
| 20260902080508 | 26 | 244 | 0.0 | 0.0 | 0.00 | 0.00 | 0.00 | 79 | 1016.2 |
| 20260902080004 | 26 | 231 | 0.0 | 0.0 | 0.00 | 0.00 | 0.00 | 79 | 1016.5 |
| 20260902075459 | 26 | 226 | 0.0 | 0.0 | 0.00 | 0.00 | 0.00 | 78 | 1016.5 |
| 20260902074954 | 26 | 232 | 0.0 | 1.6 | 0.00 | 0.00 | 0.00 | 78 | 1016.5 |
| 20260902074450 | 26 | 241 | 0.0 | 0.0 | 0.00 | 0.00 | 0.00 | 78 | 1016.5 |
| 20260902073950 | 26 | 250 | 0.0 | 0.0 | 0.00 | 0.00 | 0.00 | 78 | 1016.5 |
| 20260902073446 | 26 | 234 | 0.0 | 0.0 | 0.00 | 0.00 | 0.00 | 77 | 1016.5 |
| 20260902072942 | 26 | 225 | 1.6 | 1.6 | 0.00 | 0.00 | 0.00 | 77 | 1016.5 |
| 20260902072438 | 26 | 252 | 0.0 | 0.0 | 0.00 | 0.00 | 0.00 | 77 | 1016.5 |
| 20260902071934 | 26 | 219 | 0.0 | 0.0 | 0.00 | 0.00 | 0.00 | 77 | 1016.5 |
| 20260902071433 | 27 | 224 | 0.0 | 0.0 | 0.00 | 0.00 | 0.00 | 76 | 1016.5 |
| 20260902070930 | 27 | 204 | 0.0 | 1.6 | 0.00 | 0.00 | 0.00 | 76 | 1016.5 |
| 20260902070425 | 27 | 255 | 0.0 | 0.0 | 0.00 | 0.00 | 0.00 | 76 | 1016.9 |
| 20260902065924 | 27 | 258 | 0.0 | 0.0 | 0.00 | 0.00 | 0.00 | 76 | 1016.9 |
| 20260902065419 | 27 | 265 | 0.0 | 0.0 | 0.00 | 0.00 | 0.00 | 75 | 1016.5 |
| 20260902064914 | 27 | 247 | 0.0 | 0.0 | 0.00 | 0.00 | 0.00 | 75 | 1016.9 |
| 20260902064410 | 27 | 229 | 0.0 | 0.0 | 0.00 | 0.00 | 0.00 | 75 | 1016.9 |
| 20260902063906 | 27 | 241 | 0.0 | 0.0 | 0.00 | 0.00 | 0.00 | 75 | 1016.9 |
| 20260902063405 | 27 | 251 | 0.0 | 0.0 | 0.00 | 0.00 | 0.00 | 74 | 1016.9 |
| 20260902062901 | 27 | 200 | 0.0 | 1.6 | 0.00 | 0.00 | 0.00 | 74 | 1016.5 |
| 20260902062359 | 27 | 235 | 0.0 | 0.0 | 0.00 | 0.00 | 0.00 | 74 | 1016.5 |
| 20260902061859 | 27 | 247 | 0.0 | 0.0 | 0.00 | 0.00 | 0.00 | 73 | 1016.9 |
| 20260902061355 | 27 | 253 | 0.0 | 0.0 | 0.00 | 0.00 | 0.00 | 72 | 1016.9 |
| 20260902060851 | 28 | 259 | 0.0 | 0.0 | 0.00 | 0.00 | 0.00 | 72 | 1016.5 |
| 20260902060346 | 28 | 229 | 1.6 | 1.6 | 0.00 | 0.00 | 0.00 | 72 | 1016.9 |
| 20260902055842 | 28 | 248 | 0.0 | 0.0 | 0.00 | 0.00 | 0.00 | 71 | 1016.5 |
| 20260902055338 | 28 | 246 | 0.0 | 1.6 | 0.00 | 0.00 | 0.00 | 70 | 1016.5 |
| 20260902054833 | 28 | 251 | 0.0 | 1.6 | 0.00 | 0.00 | 0.00 | 70 | 1016.5 |
| 20260902054329 | 28 | 235 | 0.0 | 0.0 | 0.00 | 0.00 | 0.00 | 69 | 1016.5 |
| 20260902053824 | 28 | 259 | 0.0 | 0.0 | 0.00 | 0.00 | 0.00 | 69 | 1016.5 |
| 20260902053319 | 28 | 220 | 1.6 | 1.6 | 0.00 | 0.00 | 0.00 | 69 | 1016.5 |
| 20260902052818 | 28 | 225 | 3.2 | 3.2 | 0.00 | 0.00 | 0.00 | 69 | 1016.2 |
| 20260902052313 | 28 | 223 | 1.6 | 1.6 | 0.00 | 0.00 | 0.00 | 69 | 1016.2 |
| 20260902051809 | 28 | 202 | 1.6 | 1.6 | 0.00 | 0.00 | 0.00 | 69 | 1016.5 |
| 20260902051308 | 28 | 228 | 0.0 | 0.0 | 0.00 | 0.00 | 0.00 | 68 | 1016.5 |
| 20260902050803 | 28 | 236 | 0.0 | 1.6 | 0.00 | 0.00 | 0.00 | 68 | 1016.5 |
| 20260902050303 | 28 | 233 | 0.0 | 0.0 | 0.00 | 0.00 | 0.00 | 68 | 1016.5 |
| 20260902045757 | 29 | 236 | 1.6 | 1.6 | 0.00 | 0.00 | 0.00 | 68 | 1016.5 |
| 20260902045253 | 29 | 249 | 0.0 | 1.6 | 0.00 | 0.00 | 0.00 | 67 | 1016.5 |
| 20260902044749 | 29 | 211 | 1.6 | 1.6 | 0.00 | 0.00 | 0.00 | 67 | 1016.5 |
| 20260902044244 | 30 | 134 | 1.6 | 1.6 | 0.00 | 0.00 | 0.00 | 65 | 1016.5 |
| 20260902043739 | 30 | 193 | 4.8 | 4.8 | 0.00 | 0.00 | 0.00 | 65 | 1016.5 |
| 20260902043235 | 30 | 192 | 4.8 | 8.0 | 0.00 | 0.00 | 0.00 | 65 | 1016.5 |
| 20260902042734 | 30 | 159 | 1.6 | 3.2 | 0.00 | 0.00 | 0.00 | 65 | 1016.5 |
| 20260902042229 | 30 | 233 | 1.6 | 1.6 | 0.00 | 0.00 | 0.00 | 64 | 1016.5 |
| 20260902041724 | 30 | 253 | 0.0 | 1.6 | 0.00 | 0.00 | 0.00 | 64 | 1016.5 |
| 20260902041218 | 30 | 215 | 3.2 | 3.2 | 0.00 | 0.00 | 0.00 | 63 | 1016.5 |
| 20260902040718 | 30 | 204 | 1.6 | 3.2 | 0.00 | 0.00 | 0.00 | 63 | 1016.5 |
| 20260902040214 | 30 | 166 | 6.4 | 8.0 | 0.00 | 0.00 | 0.00 | 63 | 1016.2 |
| 20260902035712 | 30 | 245 | 0.0 | 0.0 | 0.00 | 0.00 | 0.00 | 62 | 1016.2 |
| 20260902035208 | 30 | 212 | 1.6 | 1.6 | 0.00 | 0.00 | 0.00 | 61 | 1016.2 |
| 20260902034707 | 30 | 168 | 1.6 | 3.2 | 0.00 | 0.00 | 0.00 | 61 | 1016.2 |
| 20260902034206 | 30 | 205 | 0.0 | 1.6 | 0.00 | 0.00 | 0.00 | 60 | 1016.2 |
| 20260902033705 | 30 | 222 | 4.8 | 4.8 | 0.00 | 0.00 | 0.00 | 60 | 1016.2 |
| 20260902033200 | 30 | 151 | 1.6 | 3.2 | 0.00 | 0.00 | 0.00 | 60 | 1015.8 |
| 20260902032658 | 30 | 244 | 0.0 | 0.0 | 0.00 | 0.00 | 0.00 | 59 | 1015.8 |
| 20260902032154 | 30 | 233 | 1.6 | 1.6 | 0.00 | 0.00 | 0.00 | 59 | 1015.8 |
| 20260902031648 | 30 | 213 | 1.6 | 3.2 | 0.00 | 0.00 | 0.00 | 59 | 1015.8 |
| 20260902031144 | 31 | 226 | 1.6 | 1.6 | 0.00 | 0.00 | 0.00 | 58 | 1015.8 |
| 20260902030640 | 31 | 231 | 0.0 | 1.6 | 0.00 | 0.00 | 0.00 | 58 | 1015.8 |
| 20260902030139 | 31 | 226 | 0.0 | 1.6 | 0.00 | 0.00 | 0.00 | 58 | 1015.5 |
| 20260902025638 | 31 | 229 | 0.0 | 0.0 | 0.00 | 0.00 | 0.00 | 58 | 1015.5 |
| 20260902025134 | 31 | 131 | 1.6 | 3.2 | 0.00 | 0.00 | 0.00 | 57 | 1015.5 |
| 20260902024629 | 31 | 138 | 1.6 | 3.2 | 0.00 | 0.00 | 0.00 | 57 | 1015.5 |
| 20260902024124 | 31 | 126 | 1.6 | 1.6 | 0.00 | 0.00 | 0.00 | 57 | 1015.2 |
| 20260902023619 | 31 | 233 | 0.0 | 0.0 | 0.00 | 0.00 | 0.00 | 57 | 1015.2 |
| 20260902023109 | 31 | 159 | 0.0 | 1.6 | 0.00 | 0.00 | 0.00 | 56 | 1015.2 |
| 20260902022608 | 31 | 235 | 0.0 | 0.0 | 0.00 | 0.00 | 0.00 | 56 | 1014.8 |
| 20260902022104 | 31 | 239 | 0.0 | 0.0 | 0.00 | 0.00 | 0.00 | 56 | 1014.8 |
| 20260902021559 | 31 | 167 | 1.6 | 3.2 | 0.00 | 0.00 | 0.00 | 55 | 1014.5 |
| 20260902021054 | 31 | 214 | 0.0 | 1.6 | 0.00 | 0.00 | 0.00 | 55 | 1014.8 |
| 20260902020550 | 32 | 251 | 0.0 | 0.0 | 0.00 | 0.00 | 0.00 | 55 | 1014.5 |
| 20260902020046 | 32 | 133 | 1.6 | 3.2 | 0.00 | 0.00 | 0.00 | 54 | 1014.5 |
| 20260902015542 | 32 | 166 | 0.0 | 1.6 | 0.00 | 0.00 | 0.00 | 54 | 1014.5 |
| 20260902015037 | 32 | 168 | 0.0 | 1.6 | 0.00 | 0.00 | 0.00 | 54 | 1014.5 |
| 20260902014533 | 32 | 110 | 1.6 | 3.2 | 0.00 | 0.00 | 0.00 | 53 | 1014.5 |
| 20260902014028 | 32 | 153 | 3.2 | 3.2 | 0.00 | 0.00 | 0.00 | 53 | 1014.5 |
| 20260902013527 | 32 | 141 | 1.6 | 3.2 | 0.00 | 0.00 | 0.00 | 53 | 1014.1 |
| 20260902013023 | 32 | 155 | 1.6 | 1.6 | 0.00 | 0.00 | 0.00 | 52 | 1014.5 |
| 20260902012519 | 33 | 158 | 3.2 | 3.2 | 0.00 | 0.00 | 0.00 | 52 | 1014.1 |
| 20260902012014 | 33 | 187 | 4.8 | 4.8 | 0.00 | 0.00 | 0.00 | 51 | 1014.1 |
| 20260902011509 | 33 | 199 | 1.6 | 3.2 | 0.00 | 0.00 | 0.00 | 51 | 1014.1 |
| 20260902011009 | 33 | 278 | 3.2 | 3.2 | 0.00 | 0.00 | 0.00 | 50 | 1013.8 |
| 20260902010509 | 33 | 268 | 1.6 | 1.6 | 0.00 | 0.00 | 0.00 | 48 | 1014.5 |
| 20260902010004 | 34 | 118 | 9.7 | 11.3 | 0.00 | 0.00 | 0.00 | 48 | 1014.1 |
| 20260902005502 | 35 | 128 | 8.0 | 9.7 | 0.00 | 0.00 | 0.00 | 45 | 1013.8 |
| 20260902004959 | 35 | 181 | 8.0 | 11.3 | 0.00 | 0.00 | 0.00 | 44 | 1014.1 |
| 20260902004457 | 35 | 85 | 6.4 | 9.7 | 0.00 | 0.00 | 0.00 | 44 | 1014.1 |
| 20260902003953 | 35 | 149 | 8.0 | 9.7 | 0.00 | 0.00 | 0.00 | 43 | 1014.1 |
| 20260902003448 | 35 | 170 | 0.0 | 1.6 | 0.00 | 0.00 | 0.00 | 43 | 1014.1 |
| 20260902002944 | 35 | 235 | 1.6 | 3.2 | 0.00 | 0.00 | 0.00 | 42 | 1014.1 |
| 20260902002439 | 35 | 162 | 3.2 | 4.8 | 0.00 | 0.00 | 0.00 | 41 | 1014.1 |
| 20260902001938 | 36 | 95 | 0.0 | 1.6 | 0.00 | 0.00 | 0.00 | 41 | 1014.1 |
| 20260902001433 | 36 | 155 | 0.0 | 1.6 | 0.00 | 0.00 | 0.00 | 41 | 1014.1 |
| 20260902000928 | 36 | 64 | 3.2 | 3.2 | 0.00 | 0.00 | 0.00 | 40 | 1014.1 |
| 20260902000424 | 36 | 138 | 8.0 | 9.7 | 0.00 | 0.00 | 0.00 | 40 | 1014.1 |
| 20260901235918 | 36 | 143 | 6.4 | 9.7 | 0.00 | 0.00 | 0.00 | 40 | 1014.1 |
| 20260901235413 | 36 | 91 | 1.6 | 1.6 | 0.00 | 0.00 | 0.00 | 40 | 1014.1 |
| 20260901234908 | 36 | 115 | 3.2 | 3.2 | 0.00 | 0.00 | 0.00 | 40 | 1014.1 |
| 20260901234402 | 36 | 188 | 3.2 | 3.2 | 0.00 | 0.00 | 0.00 | 40 | 1014.1 |
| 20260901233857 | 36 | 228 | 0.0 | 0.0 | 0.00 | 0.00 | 0.00 | 41 | 1014.1 |
| 20260901233352 | 36 | 160 | 4.8 | 8.0 | 0.00 | 0.00 | 0.00 | 41 | 1014.1 |
| 20260901232848 | 36 | 134 | 3.2 | 4.8 | 0.00 | 0.00 | 0.00 | 41 | 1013.8 |
| 20260901232343 | 36 | 133 | 1.6 | 4.8 | 0.00 | 0.00 | 0.00 | 41 | 1014.1 |
| 20260901231839 | 36 | 157 | 6.4 | 9.7 | 0.00 | 0.00 | 0.00 | 41 | 1014.1 |
| 20260901231335 | 37 | 43 | 0.0 | 1.6 | 0.00 | 0.00 | 0.00 | 40 | 1013.8 |
| 20260901230831 | 36 | 59 | 0.0 | 1.6 | 0.00 | 0.00 | 0.00 | 41 | 1014.1 |
| 20260901230331 | 37 | 97 | 1.6 | 3.2 | 0.00 | 0.00 | 0.00 | 40 | 1014.1 |
| 20260901225826 | 37 | 99 | 0.0 | 0.0 | 0.00 | 0.00 | 0.00 | 41 | 1013.8 |
| 20260901225325 | 37 | 95 | 3.2 | 4.8 | 0.00 | 0.00 | 0.00 | 41 | 1013.8 |
| 20260901224821 | 36 | 111 | 1.6 | 1.6 | 0.00 | 0.00 | 0.00 | 41 | 1013.8 |
| 20260901224317 | 37 | 156 | 1.6 | 3.2 | 0.00 | 0.00 | 0.00 | 39 | 1013.8 |
| 20260901223813 | 37 | 185 | 3.2 | 4.8 | 0.00 | 0.00 | 0.00 | 39 | 1013.8 |
| 20260901223308 | 37 | 71 | 1.6 | 1.6 | 0.00 | 0.00 | 0.00 | 40 | 1013.8 |
| 20260901222804 | 37 | 133 | 1.6 | 1.6 | 0.00 | 0.00 | 0.00 | 39 | 1013.8 |
| 20260901222300 | 37 | 164 | 1.6 | 3.2 | 0.00 | 0.00 | 0.00 | 40 | 1014.1 |
| 20260901221756 | 36 | 85 | 1.6 | 3.2 | 0.00 | 0.00 | 0.00 | 41 | 1014.1 |
| 20260901221251 | 37 | 170 | 3.2 | 3.2 | 0.00 | 0.00 | 0.00 | 41 | 1014.1 |
| 20260901220751 | 37 | 153 | 3.2 | 8.0 | 0.00 | 0.00 | 0.00 | 39 | 1013.8 |
| 20260901220250 | 37 | 56 | 12.9 | 16.1 | 0.00 | 0.00 | 0.00 | 41 | 1014.1 |
| 20260901215749 | 37 | 167 | 3.2 | 3.2 | 0.00 | 0.00 | 0.00 | 39 | 1014.1 |
| 20260901215248 | 37 | 172 | 4.8 | 4.8 | 0.00 | 0.00 | 0.00 | 40 | 1014.1 |
| 20260901214747 | 38 | 134 | 9.7 | 11.3 | 0.00 | 0.00 | 0.00 | 37 | 1014.1 |
| 20260901214246 | 38 | 132 | 4.8 | 4.8 | 0.00 | 0.00 | 0.00 | 37 | 1014.1 |
| 20260901213741 | 38 | 150 | 1.6 | 1.6 | 0.00 | 0.00 | 0.00 | 37 | 1014.1 |